Regional Weather Roundup
Issued by NWS

Home | Current Version | Previous Version | Text Only | Print | Product List | Glossary Off
Versions: 1 2 3 4 5 6 7 8 9 10 11 12 13 14 15 16 17 18 19 20 21 22 23 24 25 26 27 28 29 30 31 32 33 34 35 36 37 38 39 40 41 42 43 44 45 46 47 48 49 50

000
ASUS45 KABQ 230401
RWRNM
NEW MEXICO REGIONAL WEATHER ROUNDUP
NATIONAL WEATHER SERVICE ALBUQUERQUE NM
1000 PM MDT SUN OCT 22 2017

NOTE: "FAIR" MEANS FEW OR NO CLOUDS BELOW 12,000 FEET AGL WITH NO
       SIGNIFICANT WEATHER OR OBSTRUCTIONS TO VISION.

      THIS PRODUCT IS RELEASED AS TWO VERSIONS.  ONE VERSION NEAR
      THE TOP OF THE HOUR CONTAINING PRELIMINARY DATA FROM ALBUQUERQUE
      AND OTHER STATIONS.  A FINAL VERSION WITH ADDITIONAL DATA IS
      ISSUED ABOUT 10 MINUTES AFTER THE HOUR.

NMZ501-503-504-510>518-230500-
NORTHWEST PLATEAU/NORTHCENTRAL MOUNTAINS

CITY           SKY/WX    TMP DP  RH WIND       PRES   REMARKS
FARMINGTON     FAIR      51  20  29 W3        30.39R
LOS ALAMOS     FAIR      52  19  26 CALM      30.42S
SANTA FE       FAIR      46  26  45 N10       30.37R
TAOS           FAIR      43  17  35 CALM      30.44R
ANGEL FIRE     FAIR      46  21  36 S3        30.45R

$$
NMZ402-403-502-505>509-230500-
WESTCENTRAL MOUNTAINS/SOUTHWEST MOUNTAINS

CITY           SKY/WX    TMP DP  RH WIND       PRES   REMARKS
GALLUP         FAIR      39  19  44 CALM      30.47R
GRANTS         FAIR      42  21  44 NW8       30.46S
SILVER CITY    FAIR      49  19  29 N10       30.36S

$$
NMZ407-409-411-412-230500-
SOUTHERN DESERTS

CITY           SKY/WX    TMP DP  RH WIND       PRES   REMARKS
DEMING         FAIR      56  23  27 NW6       30.30S
LAS CRUCES     FAIR      56  25  30 NW5       30.31S
HOLLOMAN AFB   FAIR      53  33  47 N7        30.30R
ALAMOGORDO     FAIR      59  27  29 NE7       30.29S
T OR C         FAIR      57  23  26 NW6       30.32R

$$
NMZ519>523-230500-
CENTRAL VALLEYS/CENTRAL HIGHLANDS

CITY           SKY/WX    TMP DP  RH WIND       PRES   REMARKS
ALBUQUERQUE    FAIR      61  23  23 N8        30.36S
DOUBLE EAGLE   CLEAR     54  23  30 CALM      30.38S
MORIARTY ARPT  FAIR      56  24  28 NW9       30.36R
CLINES CORNERS FAIR      47  23  38 NW14      30.36R
BELEN          FAIR      53  24  32 N7        30.36R
SOCORRO        FAIR      54  20  27 SW7       30.33F

$$
NMZ524>526-539-540-230500-
SOUTHCENTRAL MOUNTAINS

CITY           SKY/WX    TMP DP  RH WIND       PRES   REMARKS
RUIDOSO        FAIR      57  19  23 NW20G25   30.38F

$$
NMZ527>531-230500-
NORTHEAST HIGHLANDS/NORTHEAST PLAINS

CITY           SKY/WX    TMP DP  RH WIND       PRES   REMARKS
LAS VEGAS      FAIR      53  24  32 N16       30.30S
RATON          FAIR      43  29  57 NE8       30.25R
CLAYTON        FAIR      49  31  49 W10       30.16S

$$
NMZ532>537-230500-
EASTCENTRAL PLAINS

CITY           SKY/WX    TMP DP  RH WIND       PRES   REMARKS
SANTA ROSA     FAIR      57  28  32 W6        30.18S
TUCUMCARI      FAIR      54  32  43 SW10      30.12S
CANNON AFB     FAIR      48  34  58 SW6       30.20F
CLOVIS AIRPORT   N/A     45  34  65 SW9       30.20F

$$
NMZ028-029-538-230500-
SOUTHEAST PLAINS

CITY           SKY/WX    TMP DP  RH WIND       PRES   REMARKS
ROSWELL        FAIR      52  38  58 CALM      30.21S
ARTESIA        FAIR      54  39  58 SW9       30.21S
CARLSBAD       FAIR      54  42  64 S9        30.19F
HOBBS          FAIR      50  39  66 W7        30.21F


$$




USA.gov is the U.S. government's official web portal to all federal, state and local government web resources and services.